Date,TemperatureHighF,TemperatureAvgF,TemperatureLowF,DewpointHighF,DewpointAvgF,DewpointLowF,HumidityHigh,HumidityAvg,HumidityLow,PressureMaxIn,PressureMinIn,WindSpeedMaxMPH,WindSpeedAvgMPH,GustSpeedMaxMPH,PrecipitationSumIn
2013-1-1,19.6,5.5,-5.9,16.6,1.6,-9.0,89,83,67,30.36,30.11,2,0,9,0.00
2013-1-2,21.4,17.4,14.4,18.7,15.1,12.3,93,90,88,30.13,30.01,2,0,9,0.00
2013-1-3,21.6,14.7,11.1,18.7,10.2,5.8,89,82,67,30.33,30.13,3,1,14,0.00
2013-1-4,32.8,21.8,14.3,20.1,15.8,11.4,92,78,58,30.18,30.07,3,0,11,0.00
2013-1-5,27.3,18.1,11.9,16.9,13.5,9.7,93,82,63,30.14,29.90,3,0,11,0.00
2013-1-6,25.4,17.3,11.5,15.2,11.5,6.5,90,78,58,30.28,30.07,2,1,7,0.00
2013-1-7,37.7,29.4,15.5,26.9,23.2,12.3,90,78,64,30.07,29.93,4,1,12,0.02
2013-1-8,34.4,27.4,18.3,29.6,23.8,16.9,95,87,74,30.01,29.79,4,1,13,0.00
2013-1-9,35.4,30.9,25.3,28.0,23.8,21.6,87,75,59,30.39,29.93,6,1,16,0.00
2013-1-10,41.1,32.8,25.6,33.8,26.1,21.2,97,77,51,30.34,29.76,3,1,12,0.43
2013-1-11,41.5,37.0,34.6,41.0,36.4,33.8,98,98,94,29.76,29.37,4,1,12,0.06
2013-1-12,39.1,15.6,4.1,37.5,9.8,-1.2,94,77,67,30.13,29.39,5,2,17,0.00
2013-1-13,8.9,4.8,1.0,2.9,-0.1,-3.2,86,80,73,30.32,30.12,2,0,7,0.00
2013-1-14,13.4,7.9,3.3,5.7,2.6,0.2,89,79,62,30.50,30.33,2,0,7,0.00
2013-1-15,30.6,20.3,9.1,18.9,13.4,5.4,92,76,55,30.35,29.88,4,1,16,0.00
2013-1-16,36.7,26.8,13.3,32.5,19.6,-0.2,94,75,49,30.27,29.69,4,2,15,0.01
2013-1-17,19.9,13.2,6.3,11.4,3.6,-4.0,79,65,54,30.45,30.28,2,0,10,0.00
2013-1-18,42.3,29.2,16.8,31.3,23.6,11.2,91,80,63,30.36,29.76,4,1,13,0.00
2013-1-19,39.3,24.2,2.4,31.7,18.6,-4.8,95,79,55,30.27,29.69,8,2,24,0.00
2013-1-20,8.6,2.4,-2.4,1.0,-5.3,-10.0,79,70,56,30.48,30.28,4,1,14,0.00
2013-1-21,-2.4,-6.5,-11.1,-9.9,-14.1,-17.9,77,69,59,30.45,30.36,4,-3,14,0.00
2013-1-22,4.8,-3.7,-12.5,-1.9,-11.4,-18.0,77,69,59,30.52,30.34,2,0,8,0.00
2013-1-23,15.8,6.6,-5.0,8.6,-1.9,-15.2,86,68,51,30.70,30.24,6,2,20,0.00
2013-1-24,13.0,1.9,-6.8,3.1,-7.4,-15.7,68,64,57,30.77,30.26,3,1,11,0.00
2013-1-25,18.9,13.5,4.5,12.0,5.2,-2.1,80,69,60,30.38,30.02,5,2,17,0.00
2013-1-26,23.3,12.5,-0.6,13.5,4.4,-4.1,88,70,55,30.42,30.18,3,1,9,0.00
2013-1-27,33.2,28.9,22.6,30.5,23.1,13.4,96,80,63,30.18,29.83,2,0,10,0.00
2013-1-28,35.6,32.2,30.8,33.8,31.2,30.0,98,96,91,29.93,29.65,3,0,7,0.06
2013-1-29,35.6,32.5,27.8,32.0,29.9,22.7,98,90,80,29.77,29.53,5,1,17,0.14
2013-1-30,27.7,17.7,8.3,22.6,11.8,2.3,83,77,72,29.81,29.67,6,3,19,0.00
2013-1-31,8.2,1.7,-7.9,2.2,-5.0,-14.8,82,73,65,30.36,29.81,5,2,20,0.00
2013-2-1,5.0,-3.2,-12.4,1.5,-9.8,-17.3,86,73,55,30.42,30.15,2,0,8,0.00
2013-2-2,13.8,6.7,0.6,7.4,1.1,-3.6,87,78,60,30.28,30.05,2,0,6,0.00
2013-2-3,15.0,10.7,4.0,8.9,5.4,-0.2,87,79,64,30.16,30.04,3,1,9,0.00
2013-2-4,17.7,10.9,2.1,12.5,3.5,-3.2,90,72,54,30.14,29.81,3,0,10,0.00
2013-2-5,28.9,22.2,9.3,24.9,17.5,7.2,93,82,64,30.12,29.71,4,1,11,0.00
2013-2-6,25.5,16.3,5.3,20.4,12.9,2.8,92,86,80,30.16,29.99,2,0,8,0.00
2013-2-7,27.3,25.3,20.2,23.7,22.2,18.3,94,88,80,30.29,30.04,3,1,12,0.00
2013-2-8,28.8,23.2,17.1,21.7,16.9,13.4,87,77,58,30.43,30.26,3,1,10,0.00
2013-2-9,32.4,28.6,25.3,28.8,25.3,21.4,93,87,83,30.26,29.96,5,2,17,0.00
2013-2-10,33.6,30.6,28.4,32.8,28.9,25.6,97,94,88,29.96,29.29,5,1,14,0.00
2013-2-11,30.0,25.1,17.1,29.3,20.9,13.6,97,84,75,30.08,29.35,6,2,21,0.00
2013-2-12,36.1,24.1,14.2,25.8,18.7,11.1,91,80,60,30.08,29.84,4,1,12,0.07
2013-2-13,39.9,29.5,19.0,32.0,24.9,16.3,96,83,63,29.84,29.58,2,0,9,0.22
2013-2-14,32.4,26.5,14.9,31.5,20.5,5.5,97,79,43,30.22,29.60,7,1,15,0.00
2013-2-15,18.0,11.6,5.9,6.7,3.4,0.8,82,70,55,30.36,30.22,4,1,14,0.00
2013-2-16,20.5,9.8,0.8,8.8,3.7,-1.9,90,77,58,30.33,30.18,2,0,6,0.00
2013-2-17,32.3,21.5,8.5,23.3,15.0,4.3,85,76,65,30.19,29.67,6,2,24,0.00
2013-2-18,33.8,23.9,8.2,30.9,19.0,3.5,90,81,73,29.85,29.55,5,2,16,0.00
2013-2-19,8.6,5.1,0.3,3.8,-2.8,-6.5,81,69,59,30.45,29.85,7,3,23,0.00
2013-2-20,17.5,6.2,-5.7,5.8,-1.3,-9.7,85,71,54,30.55,30.45,1,0,5,0.00
2013-2-21,23.7,15.7,4.1,13.7,7.7,0.1,85,71,57,30.53,30.15,3,0,10,0.00
2013-2-22,29.0,23.7,19.3,22.7,19.6,13.1,92,85,68,30.15,29.90,3,0,10,0.01
2013-2-23,33.4,24.6,20.3,25.2,20.6,16.9,92,85,69,30.00,29.88,2,0,9,0.00
2013-2-24,36.3,23.6,10.2,23.8,17.7,8.1,95,79,59,30.14,30.00,3,0,7,0.00
2013-2-25,38.5,29.1,20.1,26.1,22.4,18.4,94,77,58,30.15,30.06,1,0,5,0.03
2013-2-26,37.6,27.0,16.9,28.7,22.6,15.0,95,84,69,30.09,29.91,3,1,11,0.01
2013-2-27,40.5,32.1,28.0,27.5,25.5,22.8,84,77,56,30.06,29.90,6,2,18,0.00
2013-2-28,30.4,28.4,23.8,23.3,21.6,16.7,81,75,70,30.26,30.05,3,1,10,0.00
2013-3-1,30.5,24.7,16.1,19.8,16.7,11.8,84,71,60,30.40,30.26,3,1,11,0.00
2013-3-2,32.2,21.1,8.1,13.3,10.3,6.0,92,66,37,30.41,30.22,2,0,6,0.00
2013-3-3,33.6,26.2,18.2,14.9,11.7,7.6,72,55,41,30.22,30.02,5,1,13,0.00
2013-3-4,27.7,25.4,23.2,23.1,18.5,11.1,93,76,49,30.07,29.98,3,1,12,0.00
2013-3-5,30.7,26.0,22.0,25.9,23.0,18.5,94,88,79,30.34,30.02,0,0,3,0.01
2013-3-6,28.2,22.4,13.1,20.0,17.4,11.2,93,81,69,30.46,30.34,0,0,0,0.00
2013-3-7,32.7,21.5,8.3,20.7,14.9,6.0,94,77,58,30.45,30.33,3,0,12,0.05
2013-3-8,39.5,29.9,17.7,30.3,24.2,15.5,91,79,67,30.38,30.12,3,1,10,0.21
2013-3-9,36.7,35.2,32.8,36.2,34.1,28.9,99,96,80,30.12,29.72,3,1,12,0.79
2013-3-10,34.9,33.0,29.7,34.6,30.3,25.5,99,90,82,29.97,29.80,5,2,18,0.03
2013-3-11,30.5,27.7,22.3,25.5,22.7,18.2,85,81,71,29.89,29.78,4,2,13,0.00
2013-3-12,29.9,24.9,20.7,20.5,16.4,11.2,85,70,49,30.23,29.87,6,2,17,0.00
2013-3-13,34.2,23.4,13.2,19.0,13.9,10.3,88,69,42,30.43,30.24,3,1,9,0.00
2013-3-14,42.3,31.8,23.7,29.8,24.7,18.3,91,75,59,30.30,30.04,3,1,9,0.05
2013-3-15,34.5,31.3,24.3,31.6,28.4,22.1,94,89,82,30.04,29.85,2,0,8,0.15
2013-3-16,26.5,21.3,13.3,22.2,13.8,4.6,93,73,54,30.29,29.93,4,2,13,0.00
2013-3-17,28.3,18.7,7.4,19.5,8.1,0.7,75,63,51,30.33,29.94,5,1,16,0.00
2013-3-18,29.0,22.3,11.8,27.5,17.2,6.0,94,81,67,29.93,29.64,5,2,20,0.00
2013-3-19,23.6,14.0,6.3,8.0,3.6,-2.0,79,64,48,30.26,29.86,4,3,17,0.00
2013-3-20,21.3,12.9,4.4,5.2,1.2,-2.9,72,60,48,30.28,30.18,6,2,19,0.00
2013-3-21,28.2,16.6,3.2,11.8,6.1,-0.7,85,64,47,30.20,30.10,2,0,8,0.00
2013-3-22,38.5,24.2,8.4,17.9,12.3,5.3,89,63,38,30.15,30.08,3,0,7,0.01
2013-3-23,40.2,29.2,15.3,20.2,17.3,12.1,90,63,40,30.19,30.12,2,0,6,0.00
2013-3-24,33.1,29.9,27.3,25.5,23.2,20.6,88,76,63,30.14,30.01,3,1,11,0.00
2013-3-25,38.4,31.0,22.5,22.2,19.4,16.1,77,63,46,30.25,30.08,5,2,13,0.00
2013-3-26,40.9,32.1,25.3,23.6,21.2,19.4,82,65,45,30.33,30.25,3,1,9,0.00
2013-3-27,45.1,33.4,20.3,22.8,20.1,17.4,90,61,35,30.37,30.32,2,0,8,0.00
2013-3-28,45.8,34.1,19.8,27.7,23.0,17.6,95,67,38,30.38,30.30,3,1,10,0.00
2013-3-29,51.6,39.6,29.2,36.1,31.0,24.0,83,72,52,30.32,30.08,3,1,10,0.00
2013-3-30,53.8,43.9,35.3,43.5,38.0,31.8,94,80,63,30.09,29.85,3,1,9,0.36
2013-3-31,39.3,34.0,23.9,32.2,24.3,13.9,94,70,38,30.12,29.81,7,3,20,0.00
2013-4-1,34.2,25.5,17.4,18.2,14.4,11.4,78,63,43,30.30,30.12,4,2,14,0.00
2013-4-2,37.3,27.0,17.1,17.9,15.4,11.8,89,64,35,30.40,30.30,4,1,15,0.00
2013-4-3,46.5,34.0,16.7,32.1,21.9,13.7,91,63,37,30.44,30.08,7,2,20,0.00
2013-4-4,50.3,43.4,33.7,34.5,28.9,22.6,79,57,38,30.18,30.01,6,2,18,0.00
2013-4-5,44.4,34.2,24.5,32.7,24.7,18.5,94,70,38,30.26,29.92,4,1,14,0.07
2013-4-6,53.4,41.7,35.9,43.3,35.2,29.1,94,78,59,29.92,29.51,4,2,17,0.15
2013-4-7,48.3,40.8,34.5,39.3,34.8,31.3,92,79,61,29.95,29.75,3,1,9,0.10
2013-4-8,45.5,41.8,39.2,41.6,39.8,35.9,97,92,85,30.06,29.68,1,0,9,0.81
2013-4-9,42.9,37.8,32.3,35.9,32.5,28.5,94,82,64,30.19,29.99,4,1,16,0.31
2013-4-10,39.2,34.8,30.2,29.8,27.2,23.7,95,75,58,30.22,29.93,6,1,17,0.17
2013-4-11,35.5,33.1,30.5,32.7,30.2,24.9,96,89,65,29.94,29.71,5,2,15,0.34
2013-4-12,36.4,31.2,27.4,30.7,28.2,25.9,96,89,74,29.87,29.70,3,1,9,0.06
2013-4-13,36.7,32.6,28.4,27.9,26.6,24.5,95,79,66,29.99,29.86,2,0,9,0.06
2013-4-14,36.1,32.5,29.4,35.2,28.9,23.7,97,87,70,29.98,29.51,5,2,17,0.00
2013-4-15,40.1,35.8,32.3,34.9,30.0,26.5,96,79,68,30.00,29.55,6,2,20,0.18
2013-4-16,45.4,38.0,32.8,30.0,28.4,27.0,85,69,51,30.34,29.98,4,1,14,0.00
2013-4-17,41.2,37.1,33.4,35.4,30.8,27.5,96,78,68,30.34,29.91,4,1,13,0.15
2013-4-18,34.1,32.2,30.9,33.1,31.1,29.6,98,96,91,29.95,29.53,5,2,15,0.11
2013-4-19,37.1,32.3,29.0,30.4,26.7,19.1,98,81,59,30.02,29.51,7,3,19,0.20
2013-4-20,43.3,32.9,20.2,19.6,16.3,10.3,83,53,28,30.33,30.02,3,0,8,0.29
2013-4-21,49.5,40.5,33.2,46.3,35.8,19.1,96,84,52,30.34,30.03,6,2,21,0.18
2013-4-22,45.3,37.1,31.9,37.6,33.0,30.7,97,86,61,30.23,30.12,3,1,12,0.10
2013-4-23,42.4,34.6,28.1,31.1,26.8,20.2,97,75,47,30.19,30.09,3,1,14,0.38
2013-4-24,52.5,38.2,26.5,34.4,28.5,22.2,92,71,32,30.10,29.92,7,2,18,0.01
2013-4-25,52.1,41.8,31.5,33.5,29.6,26.2,90,65,37,30.22,29.99,4,1,14,0.00
2013-4-26,71.7,58.2,43.9,46.5,39.0,30.5,76,51,29,30.11,29.97,5,2,14,0.00
2013-4-27,75.5,60.6,40.2,47.5,38.6,33.6,79,48,26,30.12,29.87,5,1,12,0.00
2013-4-28,81.6,65.3,52.0,54.1,48.1,45.2,93,57,31,29.87,29.60,7,3,17,0.12
2013-4-29,74.8,62.4,48.9,57.5,46.9,36.1,96,61,32,29.79,29.52,3,1,10,0.01
2013-4-30,70.2,64.6,56.6,59.5,46.9,28.5,83,56,25,29.94,29.38,5,2,15,0.00
2013-5-1,56.5,41.3,33.9,39.9,34.6,29.7,94,79,47,30.49,29.94,4,1,16,0.36
2013-5-2,46.9,40.1,35.7,31.8,28.4,26.2,80,63,47,30.56,30.44,5,2,14,0.00
2013-5-3,37.3,34.2,31.4,34.2,29.7,25.1,93,84,64,30.44,30.18,3,2,14,0.17
2013-5-4,48.5,39.5,32.8,41.9,36.4,31.0,96,89,77,30.20,30.14,3,1,10,0.07
2013-5-5,65.9,50.5,38.1,49.0,42.2,35.3,91,75,53,30.20,30.07,2,1,7,0.00
2013-5-6,76.7,60.3,44.3,50.9,46.4,42.5,94,64,36,30.11,29.99,3,0,9,0.00
2013-5-7,79.0,65.8,49.3,51.9,47.5,43.1,90,56,29,30.04,29.92,4,1,10,0.00
2013-5-8,78.1,65.2,56.5,58.0,52.1,46.6,91,65,34,29.97,29.90,4,0,9,0.10
2013-5-9,58.6,53.3,43.1,55.8,48.3,31.8,93,83,61,30.10,29.92,4,1,16,0.08
2013-5-10,67.7,52.4,36.0,41.9,29.5,20.9,79,46,17,30.13,29.86,3,1,13,0.00
2013-5-11,55.3,47.0,40.8,47.3,28.1,20.3,85,49,30,30.18,29.86,8,4,23,0.08
2013-5-12,58.3,46.9,34.9,29.7,22.5,16.8,63,41,21,30.24,30.09,5,1,13,0.00
2013-5-13,71.3,55.1,35.8,48.7,35.4,26.0,79,50,30,30.12,29.63,8,2,19,0.01
2013-5-14,97.4,74.1,50.2,56.1,47.3,32.5,87,45,15,29.66,29.41,6,2,20,0.00
2013-5-15,79.6,68.2,53.9,49.6,47.0,43.7,73,48,30,29.88,29.63,5,1,16,0.00
2013-5-16,83.3,70.8,51.9,51.7,44.2,30.9,83,43,23,29.89,29.79,6,1,16,0.00
2013-5-17,69.0,59.4,56.3,55.1,51.0,32.7,93,76,26,29.96,29.85,4,1,13,0.21
2013-5-18,80.7,65.4,55.1,66.9,59.5,53.7,98,83,57,29.99,29.76,5,1,15,1.28
2013-5-19,82.6,68.8,63.0,69.0,64.2,61.9,98,86,58,29.78,29.51,9,1,25,1.75
2013-5-20,73.0,66.0,59.6,63.8,60.8,57.2,98,84,60,29.54,29.45,6,2,20,0.59
2013-5-21,59.6,55.9,47.1,58.2,54.4,46.3,98,95,90,29.69,29.49,2,1,9,0.19
2013-5-22,52.4,48.9,44.8,50.1,47.2,44.0,98,94,80,29.99,29.68,4,2,14,0.10
2013-5-23,65.0,54.2,43.7,46.0,36.9,29.7,88,56,28,30.33,30.00,3,1,13,0.00
2013-5-24,69.6,56.3,39.4,54.5,39.7,28.4,91,56,35,30.39,30.17,5,1,14,0.22
2013-5-25,62.1,56.9,52.9,52.0,48.8,44.5,95,75,58,30.25,30.21,5,2,17,0.04
2013-5-26,58.9,56.2,53.3,49.3,43.8,38.6,72,63,50,30.22,30.03,5,2,16,0.00
2013-5-27,61.7,57.2,53.7,55.3,51.6,48.0,96,82,69,30.04,29.82,3,1,11,0.04
2013-5-28,60.2,56.5,53.5,56.9,54.1,51.5,96,92,87,29.82,29.70,2,0,7,0.02
2013-5-29,76.1,65.7,53.9,70.4,61.7,53.1,98,87,73,29.81,29.61,5,1,12,0.72
2013-5-30,77.5,69.2,63.5,66.0,63.5,62.1,97,83,60,29.64,29.47,7,2,22,0.14
2013-5-31,79.1,68.6,61.2,63.3,58.1,52.0,97,72,45,29.52,29.46,8,2,23,0.33
2013-6-1,74.4,61.3,51.8,61.2,53.6,44.1,94,77,53,29.91,29.50,5,2,17,0.02
2013-6-2,67.7,57.3,49.4,44.7,42.0,40.1,76,59,38,30.07,29.92,4,2,15,0.00
2013-6-3,71.9,61.0,44.7,49.4,44.8,40.5,97,59,33,30.06,29.91,2,0,7,0.00
2013-6-4,64.2,59.8,53.9,54.0,50.6,45.3,93,72,57,30.07,29.96,5,2,16,0.04
2013-6-5,60.9,56.3,54.0,57.4,54.5,51.7,97,94,87,30.03,29.92,2,0,8,0.21
2013-6-6,56.7,52.8,49.4,52.9,51.1,48.6,98,94,86,30.03,29.95,2,1,9,0.00
2013-6-7,65.2,58.1,52.7,53.7,52.1,51.1,95,82,63,30.05,29.90,1,0,6,0.00
2013-6-8,72.2,64.0,54.6,57.4,54.3,52.0,92,72,51,29.91,29.86,3,1,10,0.00
2013-6-9,68.1,60.5,56.6,62.8,57.7,54.8,96,91,74,29.87,29.74,4,1,15,0.56
2013-6-10,77.5,66.5,58.7,64.2,61.2,57.8,99,84,59,29.83,29.77,2,0,8,0.00
2013-6-11,77.3,67.2,56.0,67.9,63.0,55.4,99,87,68,29.87,29.77,2,0,5,0.00
2013-6-12,75.3,66.7,59.5,67.6,61.7,53.9,98,85,63,29.89,29.66,5,1,14,0.79
2013-6-13,79.5,69.3,57.2,58.3,54.5,50.9,83,61,44,30.06,29.90,3,1,10,0.00
2013-6-14,79.9,70.3,58.2,63.3,57.8,51.2,82,65,52,30.05,29.83,5,2,16,0.01
2013-6-15,76.5,69.2,62.3,69.4,64.8,61.4,98,86,74,29.86,29.80,4,0,12,0.42
2013-6-16,87.1,71.1,55.8,61.3,55.4,46.9,99,64,26,29.89,29.80,7,1,24,0.04
2013-6-17,82.3,71.6,59.8,61.6,57.4,54.2,90,63,39,29.98,29.82,3,1,12,0.00
2013-6-18,77.4,66.4,54.2,59.7,55.1,47.8,81,68,50,30.06,29.98,3,1,8,0.00
2013-6-19,87.1,73.7,59.4,64.3,59.2,55.2,88,63,37,30.03,29.90,3,1,10,0.00
2013-6-20,90.7,80.7,71.8,68.6,64.2,60.5,74,58,41,29.95,29.81,6,2,17,0.00
2013-6-21,83.2,73.5,64.5,69.6,66.0,63.0,97,79,57,29.95,29.67,7,1,26,1.65
2013-6-22,81.9,72.8,65.2,71.7,68.3,65.2,100,87,68,29.95,29.79,3,1,8,0.50
2013-6-23,84.7,75.1,68.9,70.3,67.8,65.1,97,79,54,29.83,29.64,6,2,16,0.44
2013-6-24,83.7,74.1,63.4,72.0,67.0,62.8,99,80,56,29.86,29.75,5,1,13,0.00
2013-6-25,86.8,76.2,65.1,73.5,68.3,62.9,93,78,58,29.79,29.66,6,2,15,0.00
2013-6-26,89.7,80.1,72.5,76.7,71.0,64.2,97,76,51,29.76,29.60,5,1,12,0.01
2013-6-27,87.4,78.2,67.5,67.0,61.5,53.8,93,60,33,29.76,29.73,7,2,18,0.00
2013-6-28,79.0,71.5,65.4,65.6,60.7,56.4,93,70,52,29.76,29.70,6,3,16,0.10
2013-6-29,78.1,69.1,62.2,63.4,58.7,51.0,97,72,43,29.95,29.71,4,2,14,0.50
2013-6-30,83.2,70.3,56.2,57.6,54.0,46.5,89,60,33,30.08,29.95,3,1,11,0.00
2013-7-1,86.1,74.3,60.3,62.4,57.3,54.1,90,59,35,30.15,30.08,3,0,8,0.00
2013-7-2,84.7,73.5,59.2,58.8,54.8,48.7,86,55,33,30.12,30.01,2,0,8,0.00
2013-7-3,87.6,73.1,57.0,62.4,54.6,47.8,96,58,28,30.03,29.90,3,0,8,0.00
2013-7-4,90.7,78.4,63.7,63.8,58.1,54.4,78,53,30,29.92,29.80,5,2,16,0.00
2013-7-5,88.8,80.4,70.4,65.1,61.8,57.1,67,54,42,29.85,29.74,7,3,18,0.00
2013-7-6,91.7,81.4,73.6,69.1,64.3,61.6,68,57,44,29.82,29.74,4,2,14,0.00
2013-7-7,93.5,82.5,71.4,72.0,68.3,63.9,88,63,48,29.82,29.74,4,1,13,0.00
2013-7-8,88.9,75.5,65.4,71.9,67.7,63.0,95,78,54,29.95,29.82,3,1,7,0.00
2013-7-9,85.6,78.3,69.9,72.8,69.7,65.1,96,76,62,29.91,29.69,5,2,18,0.23
2013-7-10,81.1,72.4,62.1,65.5,57.4,52.7,82,62,40,30.00,29.86,5,2,15,0.00
2013-7-11,87.3,74.7,58.5,63.7,58.1,55.5,95,60,35,30.08,29.93,4,1,13,0.00
2013-7-12,90.7,79.7,69.6,64.8,60.7,56.7,69,53,39,29.97,29.84,6,3,19,0.00
2013-7-13,80.8,74.0,66.3,71.2,65.4,58.7,98,76,56,30.03,29.86,5,2,15,4.52
2013-7-14,87.9,77.4,70.2,68.6,65.3,61.5,82,68,46,30.13,30.01,3,1,12,0.00
2013-7-15,90.3,80.0,67.6,71.1,67.3,64.2,93,68,44,30.19,30.10,4,1,10,0.00
2013-7-16,93.7,84.9,75.2,74.3,71.7,69.9,88,66,49,30.15,30.10,4,1,12,0.00
2013-7-17,94.4,84.9,74.8,72.8,71.3,69.4,86,65,47,30.19,30.04,3,1,13,0.00
2013-7-18,94.4,86.3,77.0,74.0,71.6,69.7,81,63,46,30.04,29.69,6,2,20,0.00
2013-7-19,84.1,80.3,73.7,71.7,65.1,58.9,82,61,44,29.84,29.65,6,2,15,0.01
2013-7-20,81.4,72.6,63.8,64.7,61.3,55.7,91,69,48,29.90,29.81,3,1,9,0.02
2013-7-21,82.2,71.0,59.2,69.0,61.2,49.2,94,72,57,29.90,29.74,4,1,11,0.18
2013-7-22,86.8,75.1,67.3,73.1,65.1,56.6,92,73,47,29.79,29.61,6,2,16,0.00
2013-7-23,77.4,68.6,60.2,56.9,55.0,53.0,85,63,45,29.97,29.79,4,1,11,0.00
2013-7-24,80.2,68.8,60.6,60.8,56.1,51.9,76,65,46,30.03,29.91,3,0,8,0.00
2013-7-25,82.4,73.6,62.9,67.5,61.5,57.9,85,67,45,29.93,29.84,5,1,12,0.00
2013-7-26,72.1,64.2,57.2,66.4,56.4,47.9,94,76,59,30.04,29.84,8,2,18,0.18
2013-7-27,61.9,56.8,51.8,52.5,48.6,46.2,86,74,59,30.04,29.91,6,2,16,0.03
2013-7-28,73.4,61.3,52.2,55.8,50.5,46.5,89,69,48,30.03,29.93,4,1,11,0.00
2013-7-29,79.1,66.4,52.0,57.8,54.7,51.2,98,69,45,30.09,30.02,3,1,10,0.00
2013-7-30,72.1,67.3,63.2,64.9,62.4,56.8,94,85,63,30.05,30.00,2,0,7,0.06
2013-7-31,79.9,69.4,60.1,66.6,60.2,51.4,99,76,41,30.03,29.93,6,1,17,0.00
2013-8-1,82.6,70.3,54.0,61.3,55.6,51.7,93,63,41,29.99,29.81,3,1,10,0.00
2013-8-2,77.7,69.3,59.6,61.3,55.1,51.0,86,63,41,29.99,29.80,4,1,12,0.00
2013-8-3,78.7,66.7,54.1,57.6,52.6,49.8,93,64,38,30.15,29.99,4,1,16,0.00
2013-8-4,75.9,65.8,53.4,57.4,54.3,50.5,91,68,47,30.19,29.97,3,0,7,0.00
2013-8-5,81.4,69.3,60.9,68.5,63.0,56.9,95,81,60,29.98,29.73,5,1,13,0.63
2013-8-6,85.6,69.1,56.1,68.8,61.5,54.7,96,79,54,29.79,29.63,7,1,23,0.83
2013-8-7,76.5,67.0,58.7,60.5,56.0,49.5,96,72,40,29.98,29.73,4,1,10,0.00
2013-8-8,76.8,65.9,55.1,61.3,57.2,53.4,96,75,52,30.01,29.94,3,0,10,0.00
2013-8-9,75.1,67.3,57.9,60.5,55.2,50.6,97,68,43,30.08,29.95,6,2,16,0.00
2013-8-10,76.9,68.2,59.9,59.5,53.9,47.6,82,62,40,30.14,30.04,4,1,10,0.00
2013-8-11,80.0,71.0,64.5,64.6,61.0,54.5,86,72,56,30.05,29.94,3,1,9,0.00
2013-8-12,80.3,71.0,60.7,64.9,57.4,51.6,94,65,38,30.02,29.94,5,2,13,0.00
2013-8-13,76.2,66.5,57.0,56.9,50.3,43.1,90,59,33,30.15,30.02,3,1,9,0.00
2013-8-14,77.2,65.6,54.0,56.3,52.2,48.8,93,65,38,30.16,30.06,5,1,12,0.00
2013-8-15,78.8,67.1,54.2,59.9,55.4,51.4,91,68,45,30.09,30.03,4,1,10,0.00
2013-8-16,81.4,71.1,58.9,60.6,56.1,52.3,90,61,38,30.14,30.08,4,1,11,0.00
2013-8-17,82.8,71.1,57.0,58.6,55.7,52.5,92,62,37,30.15,30.05,5,2,14,0.00
2013-8-18,83.7,72.7,59.8,59.5,57.4,55.2,87,61,41,30.09,29.95,6,2,21,0.00
2013-8-19,87.3,75.5,67.5,69.1,63.8,58.2,77,68,51,29.97,29.83,5,2,14,0.00
2013-8-20,90.1,80.1,70.4,73.0,69.4,65.3,84,71,55,29.85,29.78,5,2,15,0.00
2013-8-21,87.0,80.0,73.1,76.0,71.0,62.5,89,75,57,29.93,29.76,3,1,10,0.00
2013-8-22,87.6,76.6,67.6,63.4,54.1,49.0,67,48,28,30.07,29.92,3,1,10,0.00
2013-8-23,86.8,75.3,62.0,67.2,58.6,49.0,77,57,42,30.09,29.97,5,2,14,0.00
2013-8-24,89.9,79.7,70.3,72.5,68.7,64.6,83,70,53,30.01,29.86,7,4,23,0.00
2013-8-25,95.4,85.7,77.8,75.5,72.7,70.0,78,66,50,29.93,29.85,5,3,18,0.00
2013-8-26,95.7,86.1,77.2,76.4,74.5,72.8,88,70,51,29.91,29.75,5,2,14,0.00
2013-8-27,95.1,84.9,76.9,78.5,74.5,71.8,85,72,53,29.84,29.71,4,1,10,0.00
2013-8-28,90.2,80.9,71.2,73.4,70.1,63.3,96,72,42,29.94,29.83,4,1,11,0.00
2013-8-29,94.1,83.3,75.2,76.1,72.2,66.1,92,71,41,29.93,29.77,4,2,12,0.00
2013-8-30,85.1,77.6,70.8,72.4,67.1,62.6,89,71,53,29.86,29.74,4,2,11,0.00
2013-8-31,89.3,75.5,65.8,69.1,65.3,62.5,91,73,46,29.83,29.63,9,1,22,0.11
2013-9-1,72.1,68.4,61.7,65.2,59.8,53.5,86,74,63,29.93,29.66,6,3,16,0.01
2013-9-2,67.0,59.4,53.2,53.7,52.1,50.6,93,77,61,30.06,29.93,4,1,9,0.00
2013-9-3,78.2,62.8,48.1,59.4,54.0,47.3,98,76,47,30.08,29.96,3,1,10,0.00
2013-9-4,87.4,72.2,58.7,66.1,61.3,57.0,96,71,43,30.11,29.97,2,1,7,0.00
2013-9-5,82.7,72.4,63.5,66.5,59.5,52.7,83,65,48,30.17,30.05,4,2,10,0.00
2013-9-6,91.3,79.6,69.8,69.8,66.5,62.6,94,68,41,30.05,29.80,6,2,19,0.01
2013-9-7,92.5,80.8,69.5,71.2,67.2,60.9,89,65,41,29.94,29.78,4,1,14,0.00
2013-9-8,75.2,70.3,65.7,65.4,60.8,55.6,83,72,63,29.99,29.83,4,2,12,0.00
2013-9-9,92.4,78.1,69.4,74.2,69.0,64.6,92,76,50,29.83,29.56,5,2,13,0.00
2013-9-10,81.5,73.7,67.7,72.6,65.4,60.8,92,76,57,29.93,29.69,4,1,12,0.01
2013-9-11,83.6,73.0,62.4,63.0,57.3,48.4,93,62,30,30.00,29.93,7,2,15,0.00
2013-9-12,73.1,64.6,55.3,55.7,49.6,44.9,86,60,38,30.19,30.00,6,2,13,0.00
2013-9-13,70.0,59.3,46.3,50.0,45.6,43.1,96,63,39,30.25,30.06,4,1,9,0.00
2013-9-14,71.9,59.7,48.7,57.8,49.7,44.6,96,72,44,30.06,29.86,4,1,15,0.34
2013-9-15,65.3,58.4,51.7,57.2,54.0,45.1,97,86,70,30.29,29.84,4,2,12,0.21
2013-9-16,66.6,55.2,44.3,45.5,42.6,39.5,88,65,39,30.39,30.23,4,2,12,0.00
2013-9-17,67.6,57.5,50.3,57.8,50.3,43.2,97,78,61,30.23,29.91,7,3,19,0.03
2013-9-18,73.1,66.8,58.9,69.0,64.8,57.8,99,93,84,29.91,29.65,4,2,17,0.13
2013-9-19,76.6,70.1,64.8,71.0,66.4,57.1,97,88,72,29.76,29.59,10,1,25,0.25
2013-9-20,64.7,58.3,51.0,57.0,52.1,47.6,90,81,58,29.90,29.73,7,3,19,0.02
2013-9-21,63.4,53.5,46.7,49.2,47.0,44.9,95,80,56,29.98,29.89,4,1,11,0.00
2013-9-22,72.8,59.4,46.8,56.4,51.0,45.1,97,75,54,29.96,29.82,7,3,17,0.00
2013-9-23,73.6,63.4,54.0,54.6,52.1,49.2,84,68,49,29.92,29.83,7,3,19,0.00
2013-9-24,75.5,63.0,52.9,55.5,52.2,49.4,88,70,44,29.94,29.87,4,2,12,0.00
2013-9-25,74.4,62.5,51.8,55.3,52.7,50.4,96,73,47,29.94,29.83,5,2,12,0.00
2013-9-26,81.8,68.1,56.1,61.7,56.6,51.3,84,68,47,29.89,29.78,8,3,22,0.00
2013-9-27,84.2,73.5,65.5,65.4,61.4,59.6,82,67,47,29.87,29.74,8,4,23,0.01
2013-9-28,72.9,61.3,49.0,63.4,54.9,46.0,94,80,64,29.90,29.58,7,3,24,0.20
2013-9-29,77.1,60.9,46.2,48.9,45.4,42.3,89,61,31,29.94,29.75,5,2,17,0.00
2013-9-30,79.6,68.2,59.3,53.5,50.1,46.1,66,53,38,29.76,29.55,6,3,24,0.00
2013-10-1,74.7,66.6,52.7,53.5,45.0,34.0,69,49,23,29.94,29.53,7,3,18,0.00
2013-10-2,75.3,59.7,44.7,56.0,45.0,37.7,96,65,27,30.01,29.80,7,2,20,1.09
2013-10-3,59.2,57.6,54.8,57.7,56.4,54.0,98,96,92,29.90,29.77,6,1,14,0.11
2013-10-4,58.1,56.3,54.2,56.4,54.5,53.0,98,94,88,29.96,29.82,5,2,15,0.23
2013-10-5,59.5,54.8,43.0,59.1,51.9,42.2,99,91,68,29.87,29.69,6,1,16,0.16
2013-10-6,52.6,46.1,39.3,50.9,45.2,38.8,99,97,92,29.84,29.67,4,1,12,0.08
2013-10-7,66.8,52.4,40.9,48.8,44.1,39.6,99,77,39,29.96,29.82,4,1,10,0.00
2013-10-8,76.5,62.7,48.7,50.1,46.1,43.5,89,58,34,29.95,29.79,7,3,22,0.00
2013-10-9,76.3,66.0,58.5,53.7,50.1,47.4,72,57,42,30.00,29.88,5,2,18,0.00
2013-10-10,77.7,63.2,52.0,55.4,49.7,46.0,84,64,39,30.00,29.84,6,2,17,0.00
2013-10-11,73.3,65.6,56.6,61.9,54.6,51.0,89,69,51,29.84,29.58,8,4,25,0.02
2013-10-12,59.9,50.8,42.3,56.3,43.9,39.9,91,77,63,30.16,29.65,7,2,28,0.01
2013-10-13,60.1,47.7,36.0,41.5,37.7,33.8,96,72,39,30.43,30.16,4,1,9,0.00
2013-10-14,54.3,48.5,39.8,47.4,40.2,37.0,96,74,55,30.40,29.96,6,2,17,0.45
2013-10-15,53.0,49.4,45.4,52.2,48.4,44.6,98,96,94,29.97,29.65,6,2,19,1.10
2013-10-16,54.1,45.2,38.0,44.5,40.6,36.3,97,85,56,29.95,29.81,4,2,13,0.04
2013-10-17,58.6,46.2,38.3,46.1,40.0,35.6,96,80,52,29.88,29.76,5,2,13,0.33
2013-10-18,52.3,43.7,37.4,41.3,35.6,29.7,96,75,43,29.98,29.84,5,2,13,0.07
2013-10-19,46.9,39.3,33.0,39.9,35.7,30.9,95,87,73,29.84,29.68,5,1,12,0.10
2013-10-20,45.1,36.7,30.3,40.2,34.3,29.3,97,91,79,29.88,29.61,6,2,15,0.11
2013-10-21,38.0,34.2,29.0,33.1,24.9,22.0,84,69,56,29.97,29.88,7,3,18,0.01
2013-10-22,39.8,33.4,24.7,32.9,28.7,23.2,96,83,68,30.05,29.97,5,1,13,0.00
2013-10-23,37.3,34.5,32.9,32.7,26.4,20.9,91,73,58,30.12,30.01,6,2,15,0.00
2013-10-24,42.3,37.2,32.5,32.0,27.6,21.9,83,68,56,30.32,30.12,7,2,17,0.00
2013-10-25,56.9,44.2,28.3,42.7,34.5,26.0,92,70,54,30.33,29.77,5,2,18,0.00
2013-10-26,51.8,42.7,36.2,42.3,31.0,28.5,77,63,54,30.10,29.78,8,4,19,0.00
2013-10-27,56.6,42.6,30.8,35.4,31.1,26.9,86,66,43,30.13,29.81,4,1,12,0.00
2013-10-28,43.5,37.2,31.5,31.4,25.5,21.0,83,64,43,30.44,30.14,4,2,14,0.00
2013-10-29,40.7,37.1,30.5,37.5,29.5,22.9,93,74,64,30.42,30.10,3,1,9,0.03
2013-10-30,49.2,44.4,38.9,49.0,43.7,37.3,99,97,92,30.09,29.65,3,1,8,0.10
2013-10-31,49.3,42.8,39.5,49.0,41.7,37.8,99,96,91,29.66,29.39,5,2,14,0.02
2013-11-1,50.2,42.8,37.2,39.1,36.8,32.9,95,80,59,29.85,29.40,6,2,15,0.01
2013-11-2,48.3,39.5,32.9,36.5,32.1,29.5,96,76,50,30.10,29.85,5,2,15,0.00
2013-11-3,54.4,44.5,34.2,36.8,33.5,30.0,95,67,45,30.12,29.88,9,4,29,0.00
2013-11-4,47.8,43.9,33.9,45.1,37.9,32.9,97,80,61,30.14,29.82,8,2,20,0.19
2013-11-5,45.0,35.5,28.9,34.5,30.7,27.6,98,84,52,30.25,30.03,2,1,8,0.03
2013-11-6,38.0,33.2,29.9,31.7,28.0,24.1,97,82,63,30.17,30.03,5,2,11,0.26
2013-11-7,35.2,29.0,23.4,30.8,26.7,22.2,97,91,82,30.26,30.17,5,1,11,0.01
2013-11-8,45.5,35.4,23.9,39.4,29.2,22.7,97,80,58,30.22,29.60,7,2,18,0.00
2013-11-9,44.2,40.7,35.9,40.0,33.1,26.5,87,75,60,30.20,29.63,11,6,27,0.01
2013-11-10,42.4,37.6,30.7,32.0,29.5,25.9,83,72,61,30.33,30.09,6,2,16,0.00
2013-11-11,37.9,24.6,15.5,31.9,14.3,8.4,82,65,51,30.76,30.12,6,3,17,0.00
2013-11-12,27.5,19.8,12.1,15.0,10.0,7.0,82,67,45,30.83,30.48,6,2,11,0.00
2013-11-13,49.4,36.7,21.9,35.3,25.0,13.9,74,63,50,30.48,29.88,5,2,16,0.00
2013-11-14,50.7,41.0,35.0,39.4,33.9,29.9,89,76,64,29.88,29.75,2,1,12,0.00
2013-11-15,55.9,42.9,30.8,41.4,35.4,29.5,95,77,51,29.84,29.63,6,1,14,0.00
2013-11-16,48.2,44.4,41.4,47.7,41.9,35.6,98,91,71,29.63,29.21,4,2,15,0.15
2013-11-17,43.7,39.3,31.5,42.0,35.5,25.1,97,86,76,29.82,29.29,13,4,27,0.01
2013-11-18,34.1,29.4,23.8,25.7,21.9,19.9,86,74,60,30.28,29.83,10,4,27,0.00
2013-11-19,45.7,35.6,24.4,31.5,26.4,20.6,88,71,52,30.28,29.93,8,4,22,0.00
2013-11-20,44.5,41.4,37.2,34.6,30.9,26.9,90,67,53,30.03,29.89,5,3,17,0.00
2013-11-21,37.9,31.1,24.2,36.7,27.6,16.0,97,87,71,30.53,30.03,6,3,16,0.00
2013-11-22,32.9,23.0,12.6,16.5,11.7,3.9,85,63,35,30.67,30.48,8,3,19,0.00
2013-11-23,16.9,11.5,6.6,5.4,2.5,-1.4,82,67,45,30.88,30.67,7,3,16,0.00
2013-11-24,29.8,19.6,7.2,17.2,9.7,2.8,84,66,50,30.77,30.02,7,3,20,0.00
2013-11-25,37.8,33.0,27.5,28.6,24.0,17.0,83,69,59,30.09,29.93,9,4,22,0.00
2013-11-26,29.6,20.4,13.7,21.0,8.6,3.4,73,60,49,30.42,30.09,10,5,24,0.00
2013-11-27,24.0,17.4,8.0,12.2,8.5,4.6,89,69,55,30.43,30.11,4,2,14,0.00
2013-11-28,27.0,21.8,13.1,15.3,12.6,9.4,85,67,54,30.55,30.11,6,2,13,0.00
2013-11-29,32.6,23.1,10.6,22.2,16.1,8.0,92,75,57,30.55,30.17,5,2,19,0.00
2013-11-30,40.0,31.7,24.2,28.4,25.0,21.6,93,77,62,30.18,30.04,3,1,8,0.00
2013-12-1,34.0,27.9,20.2,25.7,23.2,18.3,94,83,70,30.20,29.93,2,0,7,0.00
2013-12-2,36.9,32.4,28.2,33.4,29.7,24.8,96,90,81,29.93,29.59,3,2,12,0.06
2013-12-3,34.8,33.9,31.4,34.3,32.9,30.0,98,96,94,29.79,29.59,3,1,10,0.18
2013-12-4,31.3,27.4,14.2,30.3,25.9,10.4,97,94,84,29.78,29.48,8,2,19,0.00
2013-12-5,14.0,6.1,-0.3,10.0,1.1,-4.7,85,79,71,30.40,29.72,8,4,20,0.00
2013-12-6,4.5,-1.7,-7.0,-2.2,-6.7,-11.8,84,79,70,30.73,30.40,6,2,14,0.00
2013-12-7,2.0,-4.4,-11.1,-6.2,-9.6,-14.6,85,78,65,30.81,30.66,3,1,10,0.00
2013-12-8,12.1,6.9,-2.3,8.9,3.4,-7.0,90,85,78,30.66,30.09,3,1,9,0.00
2013-12-9,11.1,1.0,-3.6,9.0,-3.6,-8.2,90,81,70,30.17,29.94,8,2,17,0.00
2013-12-10,12.2,6.4,1.7,8.4,1.4,-3.1,91,80,69,30.35,29.83,8,3,20,0.00
2013-12-11,4.3,-2.8,-7.5,-2.1,-9.2,-13.0,79,74,63,30.64,30.35,6,2,16,0.00
2013-12-12,19.3,11.9,0.6,12.1,6.4,-4.6,88,78,66,30.39,30.19,3,1,8,0.00
2013-12-13,16.9,13.6,10.9,12.3,8.7,7.0,89,80,74,30.34,30.17,3,2,11,0.00
2013-12-14,15.4,9.7,0.2,9.5,5.5,-4.7,89,83,75,30.33,30.13,7,2,17,0.00
2013-12-15,4.2,0.9,-1.5,-4.7,-6.3,-7.9,80,71,60,30.22,30.16,5,2,15,0.00
2013-12-16,20.2,9.5,1.2,18.0,5.0,-7.0,92,82,67,30.20,29.96,3,1,11,0.00
2013-12-17,32.6,23.0,7.7,28.1,17.2,5.0,92,78,67,30.14,29.92,10,4,25,0.01
2013-12-18,35.5,23.7,7.7,27.1,18.7,5.1,93,81,69,30.10,29.67,4,1,12,0.04
2013-12-19,27.7,18.1,15.7,22.9,13.4,9.9,90,81,73,30.10,29.82,3,1,11,0.00
2013-12-20,18.4,16.2,13.0,14.3,12.8,10.6,90,86,81,30.07,29.89,2,1,6,0.00
2013-12-21,22.2,18.7,15.1,16.5,14.5,11.7,87,83,77,30.03,29.89,3,1,8,0.00
2013-12-22,19.5,14.4,5.0,15.0,10.8,1.5,88,85,79,30.28,29.98,6,3,15,0.00
2013-12-23,4.7,-0.7,-5.4,1.2,-5.8,-10.7,85,79,73,30.58,30.28,6,3,15,0.00
2013-12-24,10.4,-0.1,-12.3,6.2,-5.4,-16.2,89,78,61,30.57,30.21,5,2,14,0.00
2013-12-25,26.7,16.3,8.9,23.3,12.5,5.6,91,85,74,30.21,30.09,7,2,17,0.00
2013-12-26,26.1,19.5,11.1,22.3,16.4,9.0,94,88,82,30.20,30.11,3,0,7,0.01
2013-12-27,39.2,28.1,13.2,31.4,24.7,11.3,96,87,71,30.20,29.91,4,1,14,0.14
2013-12-28,47.4,31.2,18.6,33.0,27.1,15.4,97,86,55,30.01,29.64,7,2,20,0.26
2013-12-29,18.3,-0.1,-10.9,14.8,-7.6,-16.3,86,70,56,30.38,30.02,7,4,20,0.00
2013-12-30,1.8,-4.0,-11.4,-1.9,-8.2,-16.3,86,82,77,30.38,30.26,3,1,8,0.00
2013-12-31,-0.8,-5.3,-9.9,-5.0,-10.0,-14.2,86,79,70,30.50,30.28,4,1,8,0.00
2014-1-1,1.2,-3.0,-7.8,-5.8,-9.2,-14.0,77,74,71,30.58,30.49,2,1,7,0.00
2014-1-2,3.7,-3.6,-10.7,-7.1,-11.7,-15.6,79,68,51,30.59,30.45,3,1,8,0.00